Regional Weather Roundup
Issued by NWS Albany, NY

Home | Current Version | Previous Version | Text Only | Print | Product List | Glossary On
Versions: 1 2 3 4 5 6 7 8 9 10 11 12 13 14 15 16 17 18 19 20 21 22 23 24 25 26 27
000
ASUS41 KALY 231810
RWRALY

NEW YORK STATE HOURLY WEATHER ROUNDUP
NATIONAL WEATHER SERVICE ALBANY NY
100 PM EST THU NOV 23 2017

NOTE: "FAIR" INDICATES FEW OR NO CLOUDS BELOW 12,000 FEET WITH NO
SIGNIFICANT WEATHER AND/OR NO OBSTRUCTIONS TO VISIBILITY.

NYZ032-033-038>043-046>054-057>066-NYZ062>081-082-084-231900-
EAST


CITY           SKY/WX    TMP DP  RH WIND       PRES   REMARKS
ALBANY         PTSUNNY   35  19  52 W8        30.05F WCI  29
GLENS FALLS    CLOUDY    31  19  61 VRB5      30.04F WCI  26
POUGHKEEPSIE   SUNNY     40  17  39 NW5       30.04F
NEWBURGH       SUNNY     39  21  48 SW8       30.04F WCI  34
MONTGOMERY     SUNNY     43  19  38 NW7       30.02F
WHITE PLAINS   SUNNY     39  18  42 W9        30.02F WCI  33
ISLIP          MOSUNNY   41  21  44 N10       30.04F
NEW YORK CITY  MOSUNNY   42  19  39 NW7       30.05F
CENTRAL PARK   SUNNY     40  17  39 NW7       30.07F
$$

NYZ005>009-017-018-044>046-055-056-231900-
CENTRAL


CITY           SKY/WX    TMP DP  RH WIND       PRES   REMARKS
FULTON         CLOUDY    35  23  61 SW7       30.03F WCI  29
SYRACUSE       PTSUNNY   35  21  56 SW9       30.03F WCI  28
ROME           CLOUDY    33  24  69 CALM      30.06F
ELMIRA         CLOUDY    35  22  58 S8        30.03F WCI  29
BINGHAMTON     CLOUDY    32  19  58 W7        30.00F WCI  26
MONTICELLO     SUNNY     36  19  50 NW9       30.01F WCI  29
$$

NYZ026>034-041>043-087-231900-
NORTH


CITY           SKY/WX    TMP DP  RH WIND       PRES   REMARKS
WATERTOWN      CLOUDY    32  25  75 S9        30.00F WCI  24
FORT DRUM      NOT AVBL
OGDENSBURG     CLOUDY    31  24  74 S6        30.00F WCI  25
MASSENA        CLOUDY    31  23  72 SW9       30.01F WCI  23
SARANAC LAKE   CLOUDY    24  19  81 SW7       29.92F WCI  16
PLATTSBURGH    CLOUDY    30  17  58 SE9       30.01F WCI  22
$$

NYZ001>004-010>016-019>021-085-231900-
WEST


CITY           SKY/WX    TMP DP  RH WIND       PRES   REMARKS
NIAGARA FALLS  CLOUDY    37  24  59 S8        30.00F WCI  31
BUFFALO        CLOUDY    33  26  75 S12       30.00F WCI  24
DUNKIRK        CLOUDY    36  26  67 S12       30.03F WCI  28
JAMESTOWN      CLOUDY    31  23  72 S13       29.99F WCI  21
WELLSVILLE     CLOUDY    33  22  63 SW8       29.99F WCI  26
ROCHESTER      CLOUDY    34  25  69 SW13      30.03F WCI  25
PENN YAN       CLOUDY    33  20  58 S8        30.03F WCI  26
$$

             KEY
       WCI = WIND CHILL INDEX
       VSB = VISIBILITY
       HX  = HEAT INDEX
$$




USA.gov is the U.S. government's official web portal to all federal, state and local government web resources and services.